Location: New Greens
(51.7702°N, 0.3379°W)
Time: 08:57:29
(UTC+00:00)

Envisat - Pass Details

Date: 25 January 2019
Orbit: 764 x 766 km, 98.2° (Epoch: 16 February)

Event Time Altitude Azimuth Distance (km) Brightness Sun altitude
Rises 18:17:14 0° 157° (SSE) 3,223 6.1 -15.3°
Reaches altitude 10° 18:19:32 10° 156° (SSE) 2,301 5.3 -15.6°
Maximum altitude 18:24:35 73° 72° (ENE) 804 2.9 -16.4°
Drops below altitude 10° 18:29:40 10° 349° (NNW) 2,316 5.5 -17.2°
Sets 18:32:00 0° 347° (NNW) 3,247 6.3 -17.5°
